Year,Month,Day,Hour,Minute,Value (Times are PST for temperature in C)
2018,07,16,00,00,18.50
2018,07,16,00,01,18.50
2018,07,16,00,02,18.50
2018,07,16,00,03,18.50
2018,07,16,00,04,18.40
2018,07,16,00,05,18.40
2018,07,16,00,06,18.40
2018,07,16,00,07,18.40
2018,07,16,00,08,18.30
2018,07,16,00,09,18.30
2018,07,16,00,10,18.20
2018,07,16,00,11,18.20
2018,07,16,00,12,18.20
2018,07,16,00,13,18.10
2018,07,16,00,14,18.00
2018,07,16,00,15,17.90
2018,07,16,00,16,17.80
2018,07,16,00,17,17.70
2018,07,16,00,18,17.60
2018,07,16,00,19,17.50
2018,07,16,00,20,17.40
2018,07,16,00,21,17.30
2018,07,16,00,22,17.30
2018,07,16,00,23,17.20
2018,07,16,00,24,17.10
2018,07,16,00,25,17.00
2018,07,16,00,26,16.90
2018,07,16,00,27,16.80
2018,07,16,00,28,16.80
2018,07,16,00,29,16.70
2018,07,16,00,30,16.70
2018,07,16,00,31,16.60
2018,07,16,00,32,16.50
2018,07,16,00,33,16.40
2018,07,16,00,34,16.40
2018,07,16,00,35,16.40
2018,07,16,00,36,16.40
2018,07,16,00,37,16.30
2018,07,16,00,38,16.30
2018,07,16,00,39,16.30
2018,07,16,00,40,16.20
2018,07,16,00,41,16.20
2018,07,16,00,42,16.10
2018,07,16,00,43,16.10
2018,07,16,00,44,16.10
2018,07,16,00,45,15.90
2018,07,16,00,46,15.90
2018,07,16,00,47,15.80
2018,07,16,00,48,15.80
2018,07,16,00,49,15.80
2018,07,16,00,50,15.80
2018,07,16,00,51,15.70
2018,07,16,00,52,15.70
2018,07,16,00,53,15.70
2018,07,16,00,54,15.70
2018,07,16,00,55,15.60
2018,07,16,00,56,15.60
2018,07,16,00,57,15.60
2018,07,16,00,58,15.50
2018,07,16,00,59,15.50
2018,07,16,01,00,15.50
2018,07,16,01,01,15.40
2018,07,16,01,02,15.40
2018,07,16,01,03,15.40
2018,07,16,01,04,15.40
2018,07,16,01,05,15.40
2018,07,16,01,06,15.30
2018,07,16,01,07,15.30
2018,07,16,01,08,15.30
2018,07,16,01,09,15.30
2018,07,16,01,10,15.30
2018,07,16,01,11,15.30
2018,07,16,01,12,15.30
2018,07,16,01,13,15.20
2018,07,16,01,14,15.20
2018,07,16,01,15,15.20
2018,07,16,01,16,15.20
2018,07,16,01,17,15.10
2018,07,16,01,18,15.10
2018,07,16,01,19,15.10
2018,07,16,01,20,15.10
2018,07,16,01,21,15.10
2018,07,16,01,22,15.10
2018,07,16,01,23,15.10
2018,07,16,01,24,15.20
2018,07,16,01,25,15.20
2018,07,16,01,26,15.20
2018,07,16,01,27,15.20
2018,07,16,01,28,15.20
2018,07,16,01,29,15.20
2018,07,16,01,30,15.10
2018,07,16,01,31,15.10
2018,07,16,01,32,15.10
2018,07,16,01,33,15.10
2018,07,16,01,34,15.10
2018,07,16,01,35,15.00
2018,07,16,01,36,15.00
2018,07,16,01,37,15.00
2018,07,16,01,38,15.00
2018,07,16,01,39,15.00
2018,07,16,01,40,15.10
2018,07,16,01,41,15.10
2018,07,16,01,42,15.10
2018,07,16,01,43,15.00
2018,07,16,01,44,15.00
2018,07,16,01,45,15.00
2018,07,16,01,46,15.00
2018,07,16,01,47,15.00
2018,07,16,01,48,14.90
2018,07,16,01,49,14.90
2018,07,16,01,50,14.90
2018,07,16,01,51,14.90
2018,07,16,01,52,14.80
2018,07,16,01,53,14.80
2018,07,16,01,54,14.80
2018,07,16,01,55,14.80
2018,07,16,01,56,14.80
2018,07,16,01,57,14.80
2018,07,16,01,58,14.80
2018,07,16,01,59,14.80
2018,07,16,02,00,14.70
2018,07,16,02,01,14.70
2018,07,16,02,02,14.70
2018,07,16,02,03,14.70
2018,07,16,02,04,14.70
2018,07,16,02,05,14.70
2018,07,16,02,06,14.70
2018,07,16,02,07,14.70
2018,07,16,02,08,14.70
2018,07,16,02,09,14.70
2018,07,16,02,10,14.60
2018,07,16,02,11,14.60
2018,07,16,02,12,14.60
2018,07,16,02,13,14.60
2018,07,16,02,14,14.60
2018,07,16,02,15,14.60
2018,07,16,02,16,14.60
2018,07,16,02,17,14.60
2018,07,16,02,18,14.60
2018,07,16,02,19,14.60
2018,07,16,02,20,14.60
2018,07,16,02,21,14.60
2018,07,16,02,22,14.50
2018,07,16,02,23,14.50
2018,07,16,02,24,14.50
2018,07,16,02,25,14.50
2018,07,16,02,26,14.50
2018,07,16,02,27,14.60
2018,07,16,02,28,14.60
2018,07,16,02,29,14.60
2018,07,16,02,30,14.50
2018,07,16,02,31,14.50
2018,07,16,02,32,14.50
2018,07,16,02,33,14.50
2018,07,16,02,34,14.50
2018,07,16,02,35,14.50
2018,07,16,02,36,14.50
2018,07,16,02,37,14.60
2018,07,16,02,38,14.60
2018,07,16,02,39,14.60
2018,07,16,02,40,14.60
2018,07,16,02,41,14.70
2018,07,16,02,42,14.70
2018,07,16,02,43,14.70
2018,07,16,02,44,14.70
2018,07,16,02,45,14.80
2018,07,16,02,46,14.80
2018,07,16,02,47,14.80
2018,07,16,02,48,14.80
2018,07,16,02,49,14.70
2018,07,16,02,50,14.70
2018,07,16,02,51,14.70
2018,07,16,02,52,14.70
2018,07,16,02,53,14.60
2018,07,16,02,54,14.60
2018,07,16,02,55,14.60
2018,07,16,02,56,14.60
2018,07,16,02,57,14.50
2018,07,16,02,58,14.50
2018,07,16,02,59,14.50
2018,07,16,03,00,14.40
2018,07,16,03,01,14.40
2018,07,16,03,02,14.30
2018,07,16,03,03,14.30
2018,07,16,03,04,14.20
2018,07,16,03,05,14.20
2018,07,16,03,06,14.20
2018,07,16,03,07,14.20
2018,07,16,03,08,14.20
2018,07,16,03,09,14.10
2018,07,16,03,10,14.10
2018,07,16,03,11,14.10
2018,07,16,03,12,14.10
2018,07,16,03,13,14.00
2018,07,16,03,14,14.00
2018,07,16,03,15,14.00
2018,07,16,03,16,14.00
2018,07,16,03,17,14.00
2018,07,16,03,18,13.90
2018,07,16,03,19,13.90
2018,07,16,03,20,13.90
2018,07,16,03,21,13.90
2018,07,16,03,22,13.80
2018,07,16,03,23,13.80
2018,07,16,03,24,13.80
2018,07,16,03,25,13.80
2018,07,16,03,26,13.80
2018,07,16,03,27,13.70
2018,07,16,03,28,13.70
2018,07,16,03,29,13.70
2018,07,16,03,30,13.70
2018,07,16,03,31,13.70
2018,07,16,03,32,13.70
2018,07,16,03,33,13.70
2018,07,16,03,34,13.60
2018,07,16,03,35,13.60
2018,07,16,03,36,13.60
2018,07,16,03,37,13.50
2018,07,16,03,38,13.50
2018,07,16,03,39,13.50
2018,07,16,03,40,13.50
2018,07,16,03,41,13.40
2018,07,16,03,42,13.40
2018,07,16,03,43,13.40
2018,07,16,03,44,13.40
2018,07,16,03,45,13.40
2018,07,16,03,46,13.30
2018,07,16,03,47,13.30
2018,07,16,03,48,13.30
2018,07,16,03,49,13.30
2018,07,16,03,50,13.30
2018,07,16,03,51,13.20
2018,07,16,03,52,13.20
2018,07,16,03,53,13.20
2018,07,16,03,54,13.10
2018,07,16,03,55,13.10
2018,07,16,03,56,13.00
2018,07,16,03,57,13.00
2018,07,16,03,58,13.00
2018,07,16,03,59,13.00
2018,07,16,04,00,13.00
2018,07,16,04,01,13.00
2018,07,16,04,02,13.00
2018,07,16,04,03,12.90
2018,07,16,04,04,12.90
2018,07,16,04,05,12.90
2018,07,16,04,06,12.90
2018,07,16,04,07,12.90
2018,07,16,04,08,12.90
2018,07,16,04,09,12.90
2018,07,16,04,10,12.90
2018,07,16,04,11,12.90
2018,07,16,04,12,12.90
2018,07,16,04,13,12.90
2018,07,16,04,14,12.90
2018,07,16,04,15,12.90
2018,07,16,04,16,12.90
2018,07,16,04,17,12.90
2018,07,16,04,18,12.90
2018,07,16,04,19,12.90
2018,07,16,04,20,13.00
2018,07,16,04,21,13.00
2018,07,16,04,22,13.00
2018,07,16,04,23,13.00
2018,07,16,04,24,13.00
2018,07,16,04,25,13.00
2018,07,16,04,26,13.00
2018,07,16,04,27,13.00
2018,07,16,04,28,13.00
2018,07,16,04,29,13.00
2018,07,16,04,30,13.00
2018,07,16,04,31,12.90
2018,07,16,04,32,13.00
2018,07,16,04,33,12.90
2018,07,16,04,34,12.90
2018,07,16,04,35,13.00
2018,07,16,04,36,13.00
2018,07,16,04,37,13.00
2018,07,16,04,38,13.00
2018,07,16,04,39,13.00
2018,07,16,04,40,13.00
2018,07,16,04,41,13.00
2018,07,16,04,42,13.00
2018,07,16,04,43,13.00
2018,07,16,04,44,13.00
2018,07,16,04,45,13.00
2018,07,16,04,46,13.00
2018,07,16,04,47,13.00
2018,07,16,04,48,13.00
2018,07,16,04,49,13.00
2018,07,16,04,50,13.00
2018,07,16,04,51,13.00
2018,07,16,04,52,13.00
2018,07,16,04,53,13.00
2018,07,16,04,54,13.00
2018,07,16,04,55,13.00
2018,07,16,04,56,13.00
2018,07,16,04,57,13.00
2018,07,16,04,58,13.00
2018,07,16,04,59,13.00
2018,07,16,05,00,13.00
2018,07,16,05,01,13.00
2018,07,16,05,02,13.00
2018,07,16,05,03,13.00
2018,07,16,05,04,13.00
2018,07,16,05,05,13.00
2018,07,16,05,06,13.00
2018,07,16,05,07,13.00
2018,07,16,05,08,13.00
2018,07,16,05,09,13.00
2018,07,16,05,10,13.00
2018,07,16,05,11,13.00
2018,07,16,05,12,13.00
2018,07,16,05,13,13.00
2018,07,16,05,14,13.00
2018,07,16,05,15,13.00
2018,07,16,05,16,13.00
2018,07,16,05,17,13.00
2018,07,16,05,18,13.00
2018,07,16,05,19,13.00
2018,07,16,05,20,13.00
2018,07,16,05,21,13.00
2018,07,16,05,22,13.00
2018,07,16,05,23,13.00
2018,07,16,05,24,12.90
2018,07,16,05,25,12.90
2018,07,16,05,26,12.90
2018,07,16,05,27,12.90
2018,07,16,05,28,12.90
2018,07,16,05,29,12.90
2018,07,16,05,30,12.90
2018,07,16,05,31,12.90
2018,07,16,05,32,12.90
2018,07,16,05,33,12.90
2018,07,16,05,34,12.90
2018,07,16,05,35,12.90
2018,07,16,05,36,12.90
2018,07,16,05,37,12.90
2018,07,16,05,38,12.90
2018,07,16,05,39,12.90
2018,07,16,05,40,12.90
2018,07,16,05,41,12.90
2018,07,16,05,42,12.90
2018,07,16,05,43,12.90
2018,07,16,05,44,12.90
2018,07,16,05,45,12.90
2018,07,16,05,46,12.90
2018,07,16,05,47,12.90
2018,07,16,05,48,13.00
2018,07,16,05,49,13.00
2018,07,16,05,50,13.00
2018,07,16,05,51,13.00
2018,07,16,05,52,13.00
2018,07,16,05,53,13.00
2018,07,16,05,54,13.00
2018,07,16,05,55,13.10
2018,07,16,05,56,13.10
2018,07,16,05,57,13.10
2018,07,16,05,58,13.10
2018,07,16,05,59,13.20
2018,07,16,06,00,13.20
2018,07,16,06,01,13.20
2018,07,16,06,02,13.30
2018,07,16,06,03,13.30
2018,07,16,06,04,13.30
2018,07,16,06,05,13.30
2018,07,16,06,06,13.30
2018,07,16,06,07,13.30
2018,07,16,06,08,13.30
2018,07,16,06,09,13.40
2018,07,16,06,10,13.40
2018,07,16,06,11,13.50
2018,07,16,06,12,13.50
2018,07,16,06,13,13.50
2018,07,16,06,14,13.60
2018,07,16,06,15,13.60
2018,07,16,06,16,13.60
2018,07,16,06,17,13.70
2018,07,16,06,18,13.70
2018,07,16,06,19,13.70
2018,07,16,06,20,13.70
2018,07,16,06,21,13.70
2018,07,16,06,22,13.70
2018,07,16,06,23,13.70
2018,07,16,06,24,13.80
2018,07,16,06,25,13.80
2018,07,16,06,26,13.90
2018,07,16,06,27,13.90
2018,07,16,06,28,13.90
2018,07,16,06,29,14.00
2018,07,16,06,30,14.00
2018,07,16,06,31,14.00
2018,07,16,06,32,14.10
2018,07,16,06,33,14.10
2018,07,16,06,34,14.20
2018,07,16,06,35,14.20
2018,07,16,06,36,14.20
2018,07,16,06,37,14.20
2018,07,16,06,38,14.30
2018,07,16,06,39,14.40
2018,07,16,06,40,14.40
2018,07,16,06,41,14.50
2018,07,16,06,42,14.60
2018,07,16,06,43,14.70
2018,07,16,06,44,14.80
2018,07,16,06,45,14.90
2018,07,16,06,46,15.00
2018,07,16,06,47,15.10
2018,07,16,06,48,15.20
2018,07,16,06,49,15.30
2018,07,16,06,50,15.40
2018,07,16,06,51,15.50
2018,07,16,06,52,15.50
2018,07,16,06,53,15.50
2018,07,16,06,54,15.50
2018,07,16,06,55,15.50
2018,07,16,06,56,15.50
2018,07,16,06,57,15.40
2018,07,16,06,58,15.40
2018,07,16,06,59,15.40
2018,07,16,07,00,15.30
2018,07,16,07,01,15.30
2018,07,16,07,02,15.30
2018,07,16,07,03,15.30
2018,07,16,07,04,15.30
2018,07,16,07,05,15.20
2018,07,16,07,06,15.20
2018,07,16,07,07,15.20
2018,07,16,07,08,15.20
2018,07,16,07,09,15.30
2018,07,16,07,10,15.30
2018,07,16,07,11,15.30
2018,07,16,07,12,15.30
2018,07,16,07,13,15.30
2018,07,16,07,14,15.30
2018,07,16,07,15,15.30
2018,07,16,07,16,15.30
2018,07,16,07,17,15.40
2018,07,16,07,18,15.40
2018,07,16,07,19,15.40
2018,07,16,07,20,15.50
2018,07,16,07,21,15.50
2018,07,16,07,22,15.50
2018,07,16,07,23,15.50
2018,07,16,07,24,15.60
2018,07,16,07,25,15.60
2018,07,16,07,26,15.70
2018,07,16,07,27,15.70
2018,07,16,07,28,15.70
2018,07,16,07,29,15.80
2018,07,16,07,30,15.80
2018,07,16,07,31,15.80
2018,07,16,07,32,15.80
2018,07,16,07,33,15.80
2018,07,16,07,34,15.80
2018,07,16,07,35,15.80
2018,07,16,07,36,15.90
2018,07,16,07,37,15.90
2018,07,16,07,38,15.90
2018,07,16,07,39,16.00
2018,07,16,07,40,16.10
2018,07,16,07,41,16.10
2018,07,16,07,42,16.20
2018,07,16,07,43,16.20
2018,07,16,07,44,16.30
2018,07,16,07,45,16.30
2018,07,16,07,46,16.30
2018,07,16,07,47,16.30
2018,07,16,07,48,16.30
2018,07,16,07,49,16.30
2018,07,16,07,50,16.40
2018,07,16,07,51,16.40
2018,07,16,07,52,16.40
2018,07,16,07,53,16.40
2018,07,16,07,54,16.40
2018,07,16,07,55,16.40
2018,07,16,07,56,16.30
2018,07,16,07,57,16.30
2018,07,16,07,58,16.30
2018,07,16,07,59,16.30
2018,07,16,08,00,16.30
2018,07,16,08,01,16.30
2018,07,16,08,02,16.30
2018,07,16,08,03,16.30
2018,07,16,08,04,16.30
2018,07,16,08,05,16.30
2018,07,16,08,06,16.40
2018,07,16,08,07,16.40
2018,07,16,08,08,16.40
2018,07,16,08,09,16.50
2018,07,16,08,10,16.60
2018,07,16,08,11,16.70
2018,07,16,08,12,16.70
2018,07,16,08,13,16.70
2018,07,16,08,14,16.80
2018,07,16,08,15,16.80
2018,07,16,08,16,16.90
2018,07,16,08,17,16.90
2018,07,16,08,18,16.90
2018,07,16,08,19,17.00
2018,07,16,08,20,17.00
2018,07,16,08,21,17.10
2018,07,16,08,22,17.10
2018,07,16,08,23,17.10
2018,07,16,08,24,17.20
2018,07,16,08,25,17.20
2018,07,16,08,26,17.20
2018,07,16,08,27,17.20
2018,07,16,08,28,17.20
2018,07,16,08,29,17.20
2018,07,16,08,30,17.30
2018,07,16,08,31,17.30
2018,07,16,08,32,17.30
2018,07,16,08,33,17.40
2018,07,16,08,34,17.50
2018,07,16,08,35,17.50
2018,07,16,08,36,17.50
2018,07,16,08,37,17.50
2018,07,16,08,38,17.50
2018,07,16,08,39,17.40
2018,07,16,08,40,17.40
2018,07,16,08,41,17.40
2018,07,16,08,42,17.50
2018,07,16,08,43,17.50
2018,07,16,08,44,17.50
2018,07,16,08,45,17.50
2018,07,16,08,46,17.60
2018,07,16,08,47,17.60
2018,07,16,08,48,17.60
2018,07,16,08,49,17.70
2018,07,16,08,50,17.70
2018,07,16,08,51,17.80
2018,07,16,08,52,17.80
2018,07,16,08,53,17.80
2018,07,16,08,54,17.90
2018,07,16,08,55,17.90
2018,07,16,08,56,18.00
2018,07,16,08,57,18.10
2018,07,16,08,58,18.20
2018,07,16,08,59,18.20
2018,07,16,09,00,18.20
2018,07,16,09,01,18.20
2018,07,16,09,02,18.20
2018,07,16,09,03,18.20
2018,07,16,09,04,18.20
2018,07,16,09,05,18.20
2018,07,16,09,06,18.20
2018,07,16,09,07,18.20
2018,07,16,09,08,18.20
2018,07,16,09,09,18.20
2018,07,16,09,10,18.20
2018,07,16,09,11,18.20
2018,07,16,09,12,18.10
2018,07,16,09,13,18.00
2018,07,16,09,14,17.90
2018,07,16,09,15,17.90
2018,07,16,09,16,17.90
2018,07,16,09,17,17.90
2018,07,16,09,18,18.00
2018,07,16,09,19,18.10
2018,07,16,09,20,18.20
2018,07,16,09,21,18.30
2018,07,16,09,22,18.40
2018,07,16,09,23,18.50
2018,07,16,09,24,18.50
2018,07,16,09,25,18.50
2018,07,16,09,26,18.50
2018,07,16,09,27,18.50
2018,07,16,09,28,18.50
2018,07,16,09,29,18.40
2018,07,16,09,30,18.40
2018,07,16,09,31,18.40
2018,07,16,09,32,18.40
2018,07,16,09,33,18.50
2018,07,16,09,34,18.50
2018,07,16,09,35,18.60
2018,07,16,09,36,18.60
2018,07,16,09,37,18.70
2018,07,16,09,38,18.70
2018,07,16,09,39,18.70
2018,07,16,09,40,18.70
2018,07,16,09,41,18.70
2018,07,16,09,42,18.60
2018,07,16,09,43,18.50
2018,07,16,09,44,18.40
2018,07,16,09,45,18.40
2018,07,16,09,46,18.40
2018,07,16,09,47,18.40
2018,07,16,09,48,18.40
2018,07,16,09,49,18.40
2018,07,16,09,50,18.40
2018,07,16,09,51,18.40
2018,07,16,09,52,18.40
2018,07,16,09,53,18.30
2018,07,16,09,54,18.30
2018,07,16,09,55,18.30
2018,07,16,09,56,18.30
2018,07,16,09,57,18.40
2018,07,16,09,58,18.50
2018,07,16,09,59,18.60
2018,07,16,10,00,18.60
2018,07,16,10,01,18.80
2018,07,16,10,02,18.90
2018,07,16,10,03,18.90
2018,07,16,10,04,19.00
2018,07,16,10,05,19.10
2018,07,16,10,06,19.10
2018,07,16,10,07,19.10
2018,07,16,10,08,19.20
2018,07,16,10,09,19.20
2018,07,16,10,10,19.20
2018,07,16,10,11,19.20
2018,07,16,10,12,19.30
2018,07,16,10,13,19.30
2018,07,16,10,14,19.40
2018,07,16,10,15,19.40
2018,07,16,10,16,19.50
2018,07,16,10,17,19.50
2018,07,16,10,18,19.50
2018,07,16,10,19,19.60
2018,07,16,10,20,19.70
2018,07,16,10,21,19.80
2018,07,16,10,22,19.90
2018,07,16,10,23,20.00
2018,07,16,10,24,20.20
2018,07,16,10,25,20.30
2018,07,16,10,26,20.40
2018,07,16,10,27,20.50
2018,07,16,10,28,20.60
2018,07,16,10,29,20.60
2018,07,16,10,30,20.70
2018,07,16,10,31,20.80
2018,07,16,10,32,20.80
2018,07,16,10,33,20.90
2018,07,16,10,34,20.90
2018,07,16,10,35,20.80
2018,07,16,10,36,20.70
2018,07,16,10,37,20.70
2018,07,16,10,38,20.60
2018,07,16,10,39,20.60
2018,07,16,10,40,20.60
2018,07,16,10,41,20.60
2018,07,16,10,42,20.70
2018,07,16,10,43,20.80
2018,07,16,10,44,20.90
2018,07,16,10,45,20.90
2018,07,16,10,46,20.90
2018,07,16,10,47,20.80
2018,07,16,10,48,20.70
2018,07,16,10,49,20.50
2018,07,16,10,50,20.30
2018,07,16,10,51,20.00
2018,07,16,10,52,19.70
2018,07,16,10,53,19.40
2018,07,16,10,54,19.20
2018,07,16,10,55,19.10
2018,07,16,10,56,19.10
2018,07,16,10,57,19.10
2018,07,16,10,58,19.10
2018,07,16,10,59,19.10
2018,07,16,11,00,19.00
2018,07,16,11,01,18.90
2018,07,16,11,02,18.90
2018,07,16,11,03,18.90
2018,07,16,11,04,18.80
2018,07,16,11,05,18.60
2018,07,16,11,06,18.50
2018,07,16,11,07,18.50
2018,07,16,11,08,18.50
2018,07,16,11,09,18.50
2018,07,16,11,10,18.50
2018,07,16,11,11,18.50
2018,07,16,11,12,18.50
2018,07,16,11,13,18.50
2018,07,16,11,14,18.40
2018,07,16,11,15,18.40
2018,07,16,11,16,18.50
2018,07,16,11,17,18.60
2018,07,16,11,18,18.60
2018,07,16,11,19,18.70
2018,07,16,11,20,18.80
2018,07,16,11,21,18.90
2018,07,16,11,22,18.90
2018,07,16,11,23,18.90
2018,07,16,11,24,19.00
2018,07,16,11,25,19.10
2018,07,16,11,26,19.20
2018,07,16,11,27,19.20
2018,07,16,11,28,19.20
2018,07,16,11,29,19.30
2018,07,16,11,30,19.30
2018,07,16,11,31,19.40
2018,07,16,11,32,19.60
2018,07,16,11,33,19.60
2018,07,16,11,34,19.70
2018,07,16,11,35,19.70
2018,07,16,11,36,19.70
2018,07,16,11,37,19.80
2018,07,16,11,38,19.90
2018,07,16,11,39,19.90
2018,07,16,11,40,19.90
2018,07,16,11,41,19.90
2018,07,16,11,42,20.00
2018,07,16,11,43,20.10
2018,07,16,11,44,20.20
2018,07,16,11,45,20.20
2018,07,16,11,46,20.30
2018,07,16,11,47,20.30
2018,07,16,11,48,20.40
2018,07,16,11,49,20.40
2018,07,16,11,50,20.40
2018,07,16,11,51,20.50
2018,07,16,11,52,20.50
2018,07,16,11,53,20.50
2018,07,16,11,54,20.50
2018,07,16,11,55,20.50
2018,07,16,11,56,20.40
2018,07,16,11,57,20.30
2018,07,16,11,58,20.20
2018,07,16,11,59,20.20
2018,07,16,12,00,20.10
2018,07,16,12,01,19.90
2018,07,16,12,02,19.90
2018,07,16,12,03,20.00
2018,07,16,12,04,20.10
2018,07,16,12,05,20.20
2018,07,16,12,06,20.40
2018,07,16,12,07,20.50
2018,07,16,12,08,20.70
2018,07,16,12,09,20.80
2018,07,16,12,10,20.90
2018,07,16,12,11,21.00
2018,07,16,12,12,21.10
2018,07,16,12,13,21.20
2018,07,16,12,14,21.30
2018,07,16,12,15,21.30
2018,07,16,12,16,21.30
2018,07,16,12,17,21.30
2018,07,16,12,18,21.30
2018,07,16,12,19,21.30
2018,07,16,12,20,21.30
2018,07,16,12,21,21.40
2018,07,16,12,22,21.40
2018,07,16,12,23,21.50
2018,07,16,12,24,21.60
2018,07,16,12,25,21.60
2018,07,16,12,26,21.70
2018,07,16,12,27,21.80
2018,07,16,12,28,22.00
2018,07,16,12,29,22.10
2018,07,16,12,30,22.20
2018,07,16,12,31,22.30
2018,07,16,12,32,22.50
2018,07,16,12,33,22.60
2018,07,16,12,34,22.80
2018,07,16,12,35,22.90
2018,07,16,12,36,23.00
2018,07,16,12,37,23.10
2018,07,16,12,38,23.20
2018,07,16,12,39,23.30
2018,07,16,12,40,23.30
2018,07,16,12,41,23.40
2018,07,16,12,42,23.50
2018,07,16,12,43,23.70
2018,07,16,12,44,23.80
2018,07,16,12,45,24.00
2018,07,16,12,46,24.10
2018,07,16,12,47,24.20
2018,07,16,12,48,24.30
2018,07,16,12,49,24.30
2018,07,16,12,50,24.40
2018,07,16,12,51,24.40
2018,07,16,12,52,24.40
2018,07,16,12,53,24.40
2018,07,16,12,54,24.40
2018,07,16,12,55,24.50
2018,07,16,12,56,24.50
2018,07,16,12,57,24.50
2018,07,16,12,58,24.60
2018,07,16,12,59,24.60
2018,07,16,13,00,24.70
2018,07,16,13,01,24.70
2018,07,16,13,02,24.70
2018,07,16,13,03,24.70
2018,07,16,13,04,24.60
2018,07,16,13,05,24.60
2018,07,16,13,06,24.50
2018,07,16,13,07,24.60
2018,07,16,13,08,24.70
2018,07,16,13,09,24.80
2018,07,16,13,10,24.90
2018,07,16,13,11,25.00
2018,07,16,13,12,25.00
2018,07,16,13,13,25.20
2018,07,16,13,14,25.20
2018,07,16,13,15,25.20
2018,07,16,13,16,25.20
2018,07,16,13,17,25.10
2018,07,16,13,18,25.00
2018,07,16,13,19,25.00
2018,07,16,13,20,24.90
2018,07,16,13,21,24.80
2018,07,16,13,22,24.80
2018,07,16,13,23,24.90
2018,07,16,13,24,24.90
2018,07,16,13,25,25.00
2018,07,16,13,26,25.10
2018,07,16,13,27,25.20
2018,07,16,13,28,25.30
2018,07,16,13,29,25.40
2018,07,16,13,30,25.40
2018,07,16,13,31,25.40
2018,07,16,13,32,25.50
2018,07,16,13,33,25.70
2018,07,16,13,34,25.90
2018,07,16,13,35,25.90
2018,07,16,13,36,25.90
2018,07,16,13,37,25.90
2018,07,16,13,38,26.00
2018,07,16,13,39,26.10
2018,07,16,13,40,26.20
2018,07,16,13,41,26.40
2018,07,16,13,42,26.40
2018,07,16,13,43,26.40
2018,07,16,13,44,26.30
2018,07,16,13,45,26.20
2018,07,16,13,46,26.00
2018,07,16,13,47,25.90
2018,07,16,13,48,25.80
2018,07,16,13,49,25.80
2018,07,16,13,50,25.80
2018,07,16,13,51,25.90
2018,07,16,13,52,26.00
2018,07,16,13,53,26.10
2018,07,16,13,54,26.10
2018,07,16,13,55,26.10
2018,07,16,13,56,26.10
2018,07,16,13,57,26.20
2018,07,16,13,58,26.40
2018,07,16,13,59,26.50
2018,07,16,14,00,26.60
2018,07,16,14,01,26.60
2018,07,16,14,02,26.60
2018,07,16,14,03,26.60
2018,07,16,14,04,26.70
2018,07,16,14,05,26.80
2018,07,16,14,06,26.70
2018,07,16,14,07,26.70
2018,07,16,14,08,26.80
2018,07,16,14,09,26.80
2018,07,16,14,10,26.80
2018,07,16,14,11,26.80
2018,07,16,14,12,26.90
2018,07,16,14,13,27.00
2018,07,16,14,14,27.10
2018,07,16,14,15,27.10
2018,07,16,14,16,27.10
2018,07,16,14,17,27.10
2018,07,16,14,18,27.20
2018,07,16,14,19,27.30
2018,07,16,14,20,27.30
2018,07,16,14,21,27.40
2018,07,16,14,22,27.50
2018,07,16,14,23,27.60
2018,07,16,14,24,27.70
2018,07,16,14,25,27.80
2018,07,16,14,26,27.90
2018,07,16,14,27,28.00
2018,07,16,14,28,28.10
2018,07,16,14,29,28.10
2018,07,16,14,30,28.00
2018,07,16,14,31,28.00
2018,07,16,14,32,27.90
2018,07,16,14,33,27.90
2018,07,16,14,34,28.00
2018,07,16,14,35,28.10
2018,07,16,14,36,28.10
2018,07,16,14,37,28.20
2018,07,16,14,38,28.30
2018,07,16,14,39,28.30
2018,07,16,14,40,28.40
2018,07,16,14,41,28.40
2018,07,16,14,42,28.30
2018,07,16,14,43,28.20
2018,07,16,14,44,28.20
2018,07,16,14,45,28.10
2018,07,16,14,46,28.00
2018,07,16,14,47,27.90
2018,07,16,14,48,27.90
2018,07,16,14,49,28.00
2018,07,16,14,50,28.00
2018,07,16,14,51,28.00
2018,07,16,14,52,28.00
2018,07,16,14,53,28.00
2018,07,16,14,54,28.00
2018,07,16,14,55,28.10
2018,07,16,14,56,28.20
2018,07,16,14,57,28.30
2018,07,16,14,58,28.40
2018,07,16,14,59,28.40
2018,07,16,15,00,28.30
2018,07,16,15,01,28.40
2018,07,16,15,02,28.40
2018,07,16,15,03,28.40
2018,07,16,15,04,28.50
2018,07,16,15,05,28.60
2018,07,16,15,06,28.70
2018,07,16,15,07,28.80
2018,07,16,15,08,28.90
2018,07,16,15,09,28.90
2018,07,16,15,10,29.00
2018,07,16,15,11,29.10
2018,07,16,15,12,29.10
2018,07,16,15,13,29.10
2018,07,16,15,14,29.10
2018,07,16,15,15,29.00
2018,07,16,15,16,28.90
2018,07,16,15,17,28.80
2018,07,16,15,18,28.80
2018,07,16,15,19,28.80
2018,07,16,15,20,28.70
2018,07,16,15,21,28.80
2018,07,16,15,22,28.80
2018,07,16,15,23,28.80
2018,07,16,15,24,28.70
2018,07,16,15,25,28.70
2018,07,16,15,26,28.70
2018,07,16,15,27,28.40
2018,07,16,15,28,28.10
2018,07,16,15,29,27.90
2018,07,16,15,30,27.70
2018,07,16,15,31,27.60
2018,07,16,15,32,27.50
2018,07,16,15,33,27.60
2018,07,16,15,34,27.70
2018,07,16,15,35,27.90
2018,07,16,15,36,27.90
2018,07,16,15,37,27.90
2018,07,16,15,38,28.00
2018,07,16,15,39,28.10
2018,07,16,15,40,28.20
2018,07,16,15,41,28.20
2018,07,16,15,42,28.30
2018,07,16,15,43,28.30
2018,07,16,15,44,28.40
2018,07,16,15,45,28.50
2018,07,16,15,46,28.60
2018,07,16,15,47,28.70
2018,07,16,15,48,28.80
2018,07,16,15,49,28.80
2018,07,16,15,50,28.90
2018,07,16,15,51,28.90
2018,07,16,15,52,28.90
2018,07,16,15,53,28.90
2018,07,16,15,54,28.90
2018,07,16,15,55,28.90
2018,07,16,15,56,29.00
2018,07,16,15,57,29.10
2018,07,16,15,58,29.10
2018,07,16,15,59,28.90
2018,07,16,16,00,28.80
2018,07,16,16,01,28.80
2018,07,16,16,02,28.70
2018,07,16,16,03,28.60
2018,07,16,16,04,28.30
2018,07,16,16,05,28.20
2018,07,16,16,06,28.10
2018,07,16,16,07,28.10
2018,07,16,16,08,28.20
2018,07,16,16,09,28.30
2018,07,16,16,10,28.40
2018,07,16,16,11,28.40
2018,07,16,16,12,28.50
2018,07,16,16,13,28.60
2018,07,16,16,14,28.40
2018,07,16,16,15,28.30
2018,07,16,16,16,28.40
2018,07,16,16,17,28.30
2018,07,16,16,18,28.10
2018,07,16,16,19,28.10
2018,07,16,16,20,27.90
2018,07,16,16,21,27.80
2018,07,16,16,22,27.90
2018,07,16,16,23,27.90
2018,07,16,16,24,28.10
2018,07,16,16,25,28.20
2018,07,16,16,26,28.30
2018,07,16,16,27,28.40
2018,07,16,16,28,28.50
2018,07,16,16,29,28.70
2018,07,16,16,30,28.80
2018,07,16,16,31,28.90
2018,07,16,16,32,28.90
2018,07,16,16,33,29.00
2018,07,16,16,34,29.10
2018,07,16,16,35,29.20
2018,07,16,16,36,29.20
2018,07,16,16,37,29.10
2018,07,16,16,38,29.10
2018,07,16,16,39,29.10
2018,07,16,16,40,29.10
2018,07,16,16,41,29.10
2018,07,16,16,42,28.90
2018,07,16,16,43,28.90
2018,07,16,16,44,28.80
2018,07,16,16,45,28.80
2018,07,16,16,46,28.80
2018,07,16,16,47,28.80
2018,07,16,16,48,28.80
2018,07,16,16,49,28.80
2018,07,16,16,50,28.80
2018,07,16,16,51,28.90
2018,07,16,16,52,28.90
2018,07,16,16,53,28.90
2018,07,16,16,54,29.00
2018,07,16,16,55,29.10
2018,07,16,16,56,29.10
2018,07,16,16,57,29.10
2018,07,16,16,58,29.10
2018,07,16,16,59,29.10
2018,07,16,17,00,29.10
2018,07,16,17,01,29.10
2018,07,16,17,02,29.10
2018,07,16,17,03,29.10
2018,07,16,17,04,29.00
2018,07,16,17,05,28.90
2018,07,16,17,06,28.70
2018,07,16,17,07,28.40
2018,07,16,17,08,28.20
2018,07,16,17,09,27.90
2018,07,16,17,10,27.80
2018,07,16,17,11,27.60
2018,07,16,17,12,27.60
2018,07,16,17,13,27.60
2018,07,16,17,14,27.40
2018,07,16,17,15,27.30
2018,07,16,17,16,27.30
2018,07,16,17,17,27.30
2018,07,16,17,18,27.30
2018,07,16,17,19,27.20